| time (UTC) | temp F | wind direction | speed MPH | gust MPH | rain 1hr in | rain 24hr in | rain mn in | humidity % | barometer mb |
| 20260506044028 | 62 | 263 | 2.0 | 7.0 | 0.00 | 0.01 | 0.01 | 54 | 1016.8 |
| 20260506043521 | 61 | 313 | 2.0 | 8.0 | 0.00 | 0.01 | 0.01 | 54 | 1016.7 |
| 20260506043237 | 62 | 294 | 1.0 | 8.0 | 0.00 | 0.01 | 0.01 | 54 | 1016.7 |
| 20260506042510 | 61 | 29 | 2.0 | 8.0 | 0.00 | 0.01 | 0.01 | 53 | 1016.9 |
| 20260506042005 | 61 | 64 | 2.0 | 8.0 | 0.00 | 0.01 | 0.01 | 51 | 1016.9 |
| 20260506041459 | 62 | 350 | 2.0 | 9.0 | 0.00 | 0.01 | 0.01 | 51 | 1016.9 |
| 20260506040952 | 62 | 318 | 1.0 | 9.0 | 0.00 | 0.01 | 0.01 | 50 | 1017.0 |
| 20260506040446 | 62 | 18 | 1.0 | 8.0 | 0.00 | 0.01 | 0.01 | 50 | 1017.1 |
| 20260506035940 | 62 | 289 | 1.0 | 8.0 | 0.00 | 0.01 | 0.01 | 48 | 1017.1 |
| 20260506035434 | 62 | 337 | 1.0 | 7.0 | 0.00 | 0.01 | 0.01 | 51 | 1017.2 |
| 20260506034927 | 62 | 10 | 2.0 | 7.0 | 0.00 | 0.01 | 0.01 | 50 | 1017.2 |
| 20260506034421 | 62 | 62 | 2.0 | 7.0 | 0.00 | 0.01 | 0.01 | 46 | 1017.3 |
| 20260506033916 | 61 | 12 | 3.0 | 8.0 | 0.00 | 0.01 | 0.01 | 46 | 1017.4 |
| 20260506033410 | 61 | 46 | 2.0 | 8.0 | 0.00 | 0.01 | 0.01 | 47 | 1017.5 |
| 20260506032905 | 61 | 320 | 2.0 | 10.0 | 0.00 | 0.01 | 0.01 | 48 | 1017.5 |
| 20260506032357 | 61 | 300 | 2.0 | 10.0 | 0.00 | 0.01 | 0.01 | 48 | 1017.6 |
| 20260506031852 | 61 | 53 | 2.0 | 8.0 | 0.00 | 0.01 | 0.01 | 51 | 1017.7 |
| 20260506031347 | 61 | 28 | 3.0 | 9.0 | 0.00 | 0.01 | 0.01 | 53 | 1017.7 |
| 20260506030841 | 61 | 354 | 3.0 | 9.0 | 0.00 | 0.01 | 0.01 | 53 | 1017.9 |
| 20260506030334 | 61 | 6 | 2.0 | 9.0 | 0.00 | 0.01 | 0.01 | 55 | 1018.0 |
| 20260506025828 | 61 | 40 | 2.0 | 10.0 | 0.00 | 0.01 | 0.01 | 57 | 1018.1 |
| 20260506025327 | 61 | 66 | 2.0 | 10.0 | 0.00 | 0.01 | 0.01 | 57 | 1018.1 |
| 20260506024816 | 61 | 305 | 2.0 | 8.0 | 0.00 | 0.01 | 0.01 | 58 | 1018.2 |
| 20260506024310 | 61 | 269 | 1.0 | 8.0 | 0.00 | 0.01 | 0.01 | 58 | 1018.5 |
| 20260506023804 | 61 | 296 | 2.0 | 8.0 | 0.00 | 0.01 | 0.01 | 59 | 1018.5 |
| 20260506023519 | 60 | 82 | 2.0 | 9.0 | 0.00 | 0.01 | 0.01 | 59 | 1018.6 |
| 20260506022751 | 61 | 46 | 2.0 | 9.0 | 0.00 | 0.01 | 0.01 | 58 | 1018.7 |
| 20260506022246 | 61 | 342 | 1.0 | 7.0 | 0.00 | 0.01 | 0.01 | 61 | 1018.7 |
| 20260506022232 | 60 | 43 | 2.0 | 7.0 | 0.00 | 0.01 | 0.01 | 61 | 1018.9 |
| 20260506021233 | 60 | 343 | 2.0 | 6.0 | 0.00 | 0.01 | 0.01 | 60 | 1019.1 |
| 20260506020728 | 60 | 74 | 1.0 | 5.0 | 0.00 | 0.01 | 0.01 | 61 | 1019.2 |
| 20260506020222 | 60 | 282 | 2.0 | 7.0 | 0.00 | 0.01 | 0.01 | 60 | 1019.3 |
| 20260506015717 | 60 | 327 | 2.0 | 7.0 | 0.00 | 0.01 | 0.01 | 61 | 1019.4 |
| 20260506015210 | 60 | 322 | 1.0 | 6.0 | 0.00 | 0.01 | 0.01 | 62 | 1019.5 |
| 20260506014711 | 60 | 66 | 1.0 | 6.0 | 0.00 | 0.01 | 0.01 | 62 | 1019.5 |
| 20260506014208 | 60 | 61 | 1.0 | 4.0 | 0.00 | 0.01 | 0.01 | 62 | 1019.6 |
| 20260506013936 | 59 | 319 | 2.0 | 6.0 | 0.00 | 0.01 | 0.01 | 63 | 1019.8 |
| 20260506013208 | 59 | 318 | 2.0 | 6.0 | 0.00 | 0.01 | 0.01 | 63 | 1019.8 |
| 20260506012706 | 59 | 290 | 2.0 | 8.0 | 0.00 | 0.01 | 0.01 | 63 | 1019.9 |
| 20260506012206 | 59 | 285 | 1.0 | 8.0 | 0.00 | 0.01 | 0.01 | 64 | 1020.1 |
| 20260506011706 | 59 | 355 | 1.0 | 4.0 | 0.00 | 0.01 | 0.01 | 64 | 1020.2 |
| 20260506011207 | 59 | 308 | 1.0 | 4.0 | 0.00 | 0.01 | 0.01 | 65 | 1020.2 |
| 20260506010710 | 59 | 302 | 1.0 | 5.0 | 0.00 | 0.01 | 0.01 | 65 | 1020.2 |
| 20260506010202 | 59 | 33 | 1.0 | 5.0 | 0.00 | 0.01 | 0.01 | 65 | 1020.3 |
| 20260506005702 | 58 | 51 | 0.0 | 3.0 | 0.00 | 0.01 | 0.01 | 67 | 1020.3 |
| 20260506005201 | 58 | 100 | 0.0 | 3.0 | 0.00 | 0.01 | 0.01 | 68 | 1020.4 |
| 20260506004700 | 57 | 305 | 0.0 | 3.0 | 0.00 | 0.01 | 0.01 | 69 | 1020.5 |
| 20260506004158 | 56 | 310 | 0.0 | 1.0 | 0.00 | 0.01 | 0.01 | 71 | 1020.5 |
| 20260506003658 | 56 | 206 | 0.0 | 2.0 | 0.00 | 0.01 | 0.01 | 73 | 1020.6 |
| 20260506003159 | 56 | 206 | 0.0 | 2.0 | 0.00 | 0.01 | 0.01 | 74 | 1020.6 |
| 20260506002658 | 56 | 25 | 0.0 | 0.0 | 0.00 | 0.01 | 0.01 | 75 | 1020.7 |
| 20260506002423 | 55 | 25 | 0.0 | 0.0 | 0.00 | 0.01 | 0.01 | 78 | 1020.8 |
| 20260506001658 | 54 | 159 | 0.0 | 0.0 | 0.00 | 0.01 | 0.01 | 80 | 1020.9 |
| 20260506001158 | 53 | 159 | 0.0 | 0.0 | 0.00 | 0.01 | 0.01 | 80 | 1021.0 |
| 20260506000656 | 53 | 159 | 0.0 | 1.0 | 0.00 | 0.01 | 0.01 | 81 | 1021.0 |
| 20260506000156 | 52 | 159 | 0.0 | 1.0 | 0.00 | 0.01 | 0.01 | 82 | 1021.0 |
| 20260505235917 | 52 | 202 | 0.0 | 1.0 | 0.00 | 0.01 | 0.01 | 82 | 1021.1 |
| 20260505235155 | 52 | 219 | 0.0 | 1.0 | 0.00 | 0.01 | 0.01 | 83 | 1021.1 |
| 20260505234912 | 51 | 81 | 0.0 | 0.0 | 0.00 | 0.01 | 0.01 | 84 | 1021.1 |
| 20260505234413 | 50 | 81 | 0.0 | 0.0 | 0.00 | 0.01 | 0.01 | 85 | 1021.1 |
| 20260505233910 | 50 | 81 | 0.0 | 0.0 | 0.00 | 0.01 | 0.01 | 87 | 1021.2 |
| 20260505233418 | 49 | 81 | 0.0 | 0.0 | 0.00 | 0.01 | 0.01 | 89 | 1021.2 |
| 20260505232652 | 49 | 81 | 0.0 | 0.0 | 0.00 | 0.01 | 0.01 | 90 | 1021.2 |
| 20260505232152 | 48 | 81 | 0.0 | 0.0 | 0.00 | 0.01 | 0.01 | 92 | 1021.2 |
| 20260505231910 | 48 | 26 | 0.0 | 0.0 | 0.00 | 0.01 | 0.01 | 95 | 1021.2 |
| 20260505231152 | 47 | 39 | 0.0 | 0.0 | 0.00 | 0.01 | 0.01 | 96 | 1021.2 |
| 20260505230652 | 47 | 39 | 0.0 | 0.0 | 0.00 | 0.01 | 0.01 | 97 | 1021.3 |
| 20260505230155 | 47 | 39 | 0.0 | 0.0 | 0.00 | 0.01 | 0.01 | 97 | 1021.3 |
| 20260505225652 | 46 | 39 | 0.0 | 0.0 | 0.00 | 0.01 | 0.01 | 97 | 1021.4 |
| 20260505225151 | 45 | 39 | 0.0 | 0.0 | 0.00 | 0.01 | 0.01 | 97 | 1021.4 |
| 20260505224920 | 45 | 39 | 0.0 | 0.0 | 0.00 | 0.01 | 0.01 | 97 | 1021.5 |
| 20260505224149 | 44 | 39 | 0.0 | 0.0 | 0.00 | 0.01 | 0.01 | 97 | 1021.5 |
| 20260505223650 | 43 | 39 | 0.0 | 0.0 | 0.00 | 0.01 | 0.01 | 97 | 1021.5 |
| 20260505223419 | 44 | 39 | 0.0 | 0.0 | 0.00 | 0.01 | 0.01 | 97 | 1021.5 |
| 20260505222650 | 43 | 39 | 0.0 | 0.0 | 0.00 | 0.01 | 0.01 | 97 | 1021.5 |
| 20260505222149 | 43 | 39 | 0.0 | 0.0 | 0.00 | 0.01 | 0.01 | 97 | 1021.4 |
| 20260505221650 | 43 | 39 | 0.0 | 0.0 | 0.00 | 0.01 | 0.01 | 97 | 1021.3 |
| 20260505221411 | 42 | 39 | 0.0 | 0.0 | 0.00 | 0.01 | 0.01 | 97 | 1021.3 |
| 20260505220650 | 41 | 39 | 0.0 | 0.0 | 0.00 | 0.01 | 0.01 | 97 | 1021.3 |
| 20260505220150 | 40 | 39 | 0.0 | 0.0 | 0.00 | 0.01 | 0.01 | 97 | 1021.3 |
| 20260505215651 | 39 | 39 | 0.0 | 0.0 | 0.00 | 0.01 | 0.01 | 96 | 1021.2 |
| 20260505215150 | 38 | 39 | 0.0 | 0.0 | 0.00 | 0.01 | 0.01 | 96 | 1021.2 |
| 20260505214650 | 38 | 39 | 0.0 | 0.0 | 0.00 | 0.01 | 0.01 | 96 | 1021.2 |
| 20260505214150 | 37 | 39 | 0.0 | 0.0 | 0.00 | 0.01 | 0.01 | 96 | 1021.1 |
| 20260505213651 | 37 | 39 | 0.0 | 0.0 | 0.00 | 0.01 | 0.01 | 96 | 1021.1 |
| 20260505213415 | 37 | 39 | 0.0 | 0.0 | 0.00 | 0.01 | 0.01 | 96 | 1021.1 |
| 20260505212648 | 37 | 39 | 0.0 | 0.0 | 0.00 | 0.01 | 0.01 | 96 | 1021.1 |
| 20260505212148 | 37 | 39 | 0.0 | 0.0 | 0.00 | 0.01 | 0.01 | 96 | 1021.1 |
| 20260505211646 | 37 | 39 | 0.0 | 0.0 | 0.00 | 0.01 | 0.01 | 96 | 1021.1 |
| 20260505211144 | 37 | 39 | 0.0 | 0.0 | 0.01 | 0.01 | 0.01 | 96 | 1021.1 |
| 20260505211124 | 37 | 39 | 0.0 | 0.0 | 0.01 | 0.01 | 0.01 | 96 | 1021.0 |
| 20260505210141 | 37 | 39 | 0.0 | 0.0 | 0.01 | 0.01 | 0.01 | 96 | 1021.0 |
| 20260505205904 | 37 | 39 | 0.0 | 0.0 | 0.01 | 0.01 | 0.01 | 96 | 1021.0 |
| 20260505205143 | 37 | 39 | 0.0 | 0.0 | 0.01 | 0.01 | 0.01 | 96 | 1021.0 |
| 20260505204856 | 37 | 39 | 0.0 | 0.0 | 0.01 | 0.01 | 0.01 | 96 | 1021.0 |
| 20260505204133 | 37 | 39 | 0.0 | 0.0 | 0.01 | 0.01 | 0.01 | 96 | 1020.9 |
| 20260505203847 | 37 | 39 | 0.0 | 0.0 | 0.01 | 0.01 | 0.01 | 96 | 1020.9 |
| 20260505203119 | 37 | 39 | 0.0 | 0.0 | 0.01 | 0.01 | 0.01 | 96 | 1020.9 |
| 20260505202615 | 37 | 39 | 0.0 | 0.0 | 0.01 | 0.01 | 0.01 | 96 | 1020.9 |
| 20260505202107 | 37 | 39 | 0.0 | 0.0 | 0.01 | 0.01 | 0.01 | 96 | 1020.8 |
| 20260505201601 | 37 | 39 | 0.0 | 0.0 | 0.01 | 0.01 | 0.01 | 96 | 1020.8 |
| 20260505201104 | 37 | 39 | 0.0 | 0.0 | 0.00 | 0.00 | 0.00 | 96 | 1020.8 |
| 20260505200832 | 37 | 39 | 0.0 | 0.0 | 0.00 | 0.00 | 0.00 | 96 | 1020.8 |
| 20260505200540 | 38 | 39 | 0.0 | 0.0 | 0.00 | 0.00 | 0.00 | 96 | 1020.7 |
| 20260505195601 | 38 | 39 | 0.0 | 0.0 | 0.00 | 0.00 | 0.00 | 96 | 1020.7 |
| 20260505195101 | 38 | 39 | 0.0 | 0.0 | 0.00 | 0.00 | 0.00 | 96 | 1020.6 |
| 20260505194600 | 38 | 39 | 0.0 | 0.0 | 0.00 | 0.00 | 0.00 | 96 | 1020.6 |
| 20260505194059 | 38 | 39 | 0.0 | 0.0 | 0.00 | 0.00 | 0.00 | 96 | 1020.6 |
| 20260505193556 | 38 | 39 | 0.0 | 0.0 | 0.00 | 0.00 | 0.00 | 96 | 1020.6 |
| 20260505193054 | 38 | 39 | 0.0 | 0.0 | 0.00 | 0.00 | 0.00 | 96 | 1020.6 |
| 20260505192554 | 38 | 39 | 0.0 | 0.0 | 0.00 | 0.00 | 0.00 | 96 | 1020.6 |
| 20260505192054 | 38 | 39 | 0.0 | 0.0 | 0.00 | 0.00 | 0.00 | 96 | 1020.5 |
| 20260505191810 | 38 | 39 | 0.0 | 0.0 | 0.00 | 0.00 | 0.00 | 96 | 1020.6 |
| 20260505191313 | 38 | 39 | 0.0 | 0.0 | 0.00 | 0.00 | 0.00 | 96 | 1020.6 |
| 20260505190551 | 38 | 39 | 0.0 | 0.0 | 0.00 | 0.00 | 0.00 | 96 | 1020.5 |
| 20260505190049 | 38 | 39 | 0.0 | 0.0 | 0.00 | 0.00 | 0.00 | 96 | 1020.7 |
| 20260505185547 | 38 | 39 | 0.0 | 0.0 | 0.00 | 0.00 | 0.00 | 96 | 1020.6 |
| 20260505185045 | 38 | 39 | 0.0 | 0.0 | 0.00 | 0.00 | 0.00 | 96 | 1020.6 |
| 20260505184544 | 38 | 39 | 0.0 | 0.0 | 0.00 | 0.00 | 0.00 | 96 | 1020.6 |
| 20260505184043 | 39 | 39 | 0.0 | 0.0 | 0.00 | 0.00 | 0.00 | 96 | 1020.6 |
| 20260505183539 | 39 | 39 | 0.0 | 0.0 | 0.00 | 0.00 | 0.00 | 96 | 1020.6 |
| 20260505183034 | 38 | 39 | 0.0 | 0.0 | 0.00 | 0.00 | 0.00 | 96 | 1020.5 |
| 20260505182527 | 38 | 39 | 0.0 | 0.0 | 0.00 | 0.00 | 0.00 | 96 | 1020.6 |
| 20260505182021 | 38 | 39 | 0.0 | 0.0 | 0.00 | 0.00 | 0.00 | 95 | 1020.6 |
| 20260505181516 | 39 | 39 | 0.0 | 0.0 | 0.00 | 0.00 | 0.00 | 96 | 1020.5 |
| 20260505181009 | 39 | 39 | 0.0 | 0.0 | 0.00 | 0.00 | 0.00 | 96 | 1020.5 |
| 20260505180505 | 39 | 39 | 0.0 | 0.0 | 0.00 | 0.00 | 0.00 | 95 | 1020.5 |
| 20260505175958 | 39 | 39 | 0.0 | 0.0 | 0.00 | 0.00 | 0.00 | 95 | 1020.5 |
| 20260505175451 | 39 | 39 | 0.0 | 0.0 | 0.00 | 0.00 | 0.00 | 95 | 1020.5 |
| 20260505174946 | 39 | 39 | 0.0 | 0.0 | 0.00 | 0.00 | 0.00 | 95 | 1020.5 |
| 20260505174439 | 39 | 39 | 0.0 | 0.0 | 0.00 | 0.00 | 0.00 | 95 | 1020.6 |
| 20260505173935 | 40 | 39 | 0.0 | 0.0 | 0.00 | 0.00 | 0.00 | 95 | 1020.6 |
| 20260505173428 | 40 | 39 | 0.0 | 0.0 | 0.00 | 0.00 | 0.00 | 95 | 1020.6 |
| 20260505172923 | 40 | 39 | 0.0 | 0.0 | 0.00 | 0.00 | 0.00 | 95 | 1020.6 |
| 20260505172416 | 40 | 39 | 0.0 | 0.0 | 0.00 | 0.00 | 0.00 | 95 | 1020.6 |
| 20260505171908 | 40 | 39 | 0.0 | 0.0 | 0.00 | 0.00 | 0.00 | 95 | 1020.6 |
| 20260505171623 | 40 | 39 | 0.0 | 0.0 | 0.00 | 0.00 | 0.00 | 95 | 1020.7 |
| 20260505170859 | 40 | 39 | 0.0 | 0.0 | 0.00 | 0.00 | 0.00 | 95 | 1020.7 |
| 20260505170353 | 40 | 39 | 0.0 | 0.0 | 0.00 | 0.00 | 0.00 | 95 | 1020.8 |
| 20260505165846 | 40 | 39 | 0.0 | 0.0 | 0.00 | 0.00 | 0.00 | 95 | 1020.8 |
| 20260505165339 | 40 | 39 | 0.0 | 0.0 | 0.00 | 0.00 | 0.00 | 95 | 1020.8 |
| 20260505164833 | 40 | 39 | 0.0 | 0.0 | 0.00 | 0.00 | 0.00 | 95 | 1020.7 |
| 20260505164330 | 40 | 39 | 0.0 | 0.0 | 0.00 | 0.00 | 0.00 | 95 | 1020.8 |
| 20260505163820 | 41 | 39 | 0.0 | 0.0 | 0.00 | 0.00 | 0.00 | 95 | 1020.8 |
| 20260505163316 | 41 | 39 | 0.0 | 0.0 | 0.00 | 0.00 | 0.00 | 95 | 1020.8 |
| 20260505162809 | 41 | 39 | 0.0 | 0.0 | 0.00 | 0.00 | 0.00 | 95 | 1020.8 |
| 20260505162307 | 41 | 39 | 0.0 | 0.0 | 0.00 | 0.00 | 0.00 | 95 | 1020.9 |
| 20260505161757 | 41 | 39 | 0.0 | 0.0 | 0.00 | 0.00 | 0.00 | 95 | 1021.0 |
| 20260505161251 | 41 | 39 | 0.0 | 0.0 | 0.00 | 0.00 | 0.00 | 95 | 1021.0 |
| 20260505160746 | 41 | 39 | 0.0 | 0.0 | 0.00 | 0.00 | 0.00 | 95 | 1021.0 |
| 20260505160245 | 41 | 39 | 0.0 | 0.0 | 0.00 | 0.00 | 0.00 | 95 | 1021.0 |
| 20260505152703 | 42 | 39 | 0.0 | 0.0 | 0.00 | 0.00 | 0.00 | 94 | 1021.3 |
| 20260505152202 | 42 | 39 | 0.0 | 0.0 | 0.00 | 0.00 | 0.00 | 94 | 1021.3 |
| 20260505151701 | 42 | 39 | 0.0 | 0.0 | 0.00 | 0.00 | 0.00 | 94 | 1021.3 |
| 20260505151159 | 42 | 39 | 0.0 | 0.0 | 0.00 | 0.00 | 0.00 | 95 | 1021.3 |
| 20260505150700 | 42 | 39 | 0.0 | 0.0 | 0.00 | 0.00 | 0.00 | 95 | 1021.4 |
| 20260505150159 | 42 | 39 | 0.0 | 0.0 | 0.00 | 0.00 | 0.00 | 94 | 1021.4 |
| 20260505140647 | 43 | 39 | 0.0 | 0.0 | 0.00 | 0.00 | 0.00 | 94 | 1021.5 |
| 20260505140139 | 43 | 39 | 0.0 | 0.0 | 0.00 | 0.00 | 0.00 | 94 | 1021.5 |
| 20260505124540 | 45 | 39 | 0.0 | 0.0 | 0.00 | 0.00 | 0.00 | 91 | 1021.7 |
| 20260505124040 | 46 | 39 | 0.0 | 0.0 | 0.00 | 0.00 | 0.00 | 91 | 1021.7 |
| 20260505123539 | 46 | 39 | 0.0 | 0.0 | 0.00 | 0.00 | 0.00 | 90 | 1021.7 |
| 20260505123037 | 46 | 39 | 0.0 | 0.0 | 0.00 | 0.00 | 0.00 | 90 | 1021.8 |
| 20260505122537 | 46 | 39 | 0.0 | 0.0 | 0.00 | 0.00 | 0.00 | 90 | 1021.8 |
| 20260505122034 | 46 | 39 | 0.0 | 0.0 | 0.00 | 0.00 | 0.00 | 89 | 1021.8 |
| 20260505121532 | 47 | 39 | 0.0 | 0.0 | 0.00 | 0.00 | 0.00 | 89 | 1021.8 |
| 20260505121029 | 47 | 39 | 0.0 | 0.0 | 0.00 | 0.00 | 0.00 | 89 | 1021.8 |
| 20260505120528 | 47 | 39 | 0.0 | 0.0 | 0.00 | 0.00 | 0.00 | 88 | 1021.8 |
| 20260505120032 | 47 | 39 | 0.0 | 0.0 | 0.00 | 0.00 | 0.00 | 88 | 1022.0 |
| 20260505115749 | 48 | 39 | 0.0 | 0.0 | 0.00 | 0.00 | 0.00 | 87 | 1021.9 |
| 20260505115027 | 48 | 39 | 0.0 | 0.0 | 0.00 | 0.00 | 0.00 | 87 | 1021.8 |
| 20260505114526 | 48 | 39 | 0.0 | 1.0 | 0.00 | 0.00 | 0.00 | 87 | 1021.8 |
| 20260505114026 | 48 | 39 | 0.0 | 3.0 | 0.00 | 0.00 | 0.00 | 86 | 1021.8 |
| 20260505113525 | 48 | 156 | 0.0 | 3.0 | 0.00 | 0.00 | 0.00 | 87 | 1021.7 |
| 20260505113019 | 48 | 24 | 0.0 | 2.0 | 0.00 | 0.00 | 0.00 | 87 | 1021.5 |
| 20260505112513 | 48 | 85 | 0.0 | 2.0 | 0.00 | 0.00 | 0.00 | 88 | 1021.4 |
| 20260505112008 | 48 | 83 | 0.0 | 3.0 | 0.00 | 0.00 | 0.00 | 89 | 1021.4 |
| 20260505111501 | 47 | 47 | 0.0 | 3.0 | 0.00 | 0.00 | 0.00 | 90 | 1021.3 |
| 20260505111001 | 47 | 40 | 0.0 | 1.0 | 0.00 | 0.00 | 0.00 | 90 | 1021.4 |
| 20260505110500 | 47 | 57 | 0.0 | 1.0 | 0.00 | 0.00 | 0.00 | 90 | 1021.3 |
| 20260505110222 | 46 | 42 | 0.0 | 0.0 | 0.00 | 0.00 | 0.00 | 90 | 1021.3 |
| 20260505101950 | 49 | 42 | 0.0 | 0.0 | 0.00 | 0.00 | 0.00 | 86 | 1021.1 |
| 20260505101448 | 49 | 42 | 0.0 | 0.0 | 0.00 | 0.00 | 0.00 | 86 | 1021.0 |
| 20260505100949 | 49 | 42 | 0.0 | 2.0 | 0.00 | 0.00 | 0.00 | 86 | 1020.9 |
| 20260505100448 | 49 | 35 | 0.0 | 4.0 | 0.00 | 0.00 | 0.00 | 86 | 1020.8 |
| 20260505095947 | 49 | 77 | 0.0 | 4.0 | 0.00 | 0.00 | 0.00 | 87 | 1020.8 |
| 20260505095446 | 49 | 1 | 0.0 | 0.0 | 0.00 | 0.00 | 0.00 | 86 | 1020.7 |
| 20260505094946 | 49 | 0 | 0.0 | 0.0 | 0.00 | 0.00 | 0.00 | 86 | 1020.7 |
| 20260505094446 | 49 | 49 | 0.0 | 0.0 | 0.00 | 0.00 | 0.00 | 85 | 1020.7 |
| 20260505093946 | 49 | 49 | 0.0 | 0.0 | 0.00 | 0.00 | 0.00 | 84 | 1020.6 |
| 20260505093444 | 50 | 49 | 0.0 | 0.0 | 0.00 | 0.00 | 0.00 | 82 | 1020.5 |
| 20260505093201 | 51 | 49 | 0.0 | 0.0 | 0.00 | 0.00 | 0.00 | 81 | 1020.5 |
| 20260505092441 | 51 | 49 | 0.0 | 0.0 | 0.00 | 0.00 | 0.00 | 81 | 1020.4 |
| 20260505091940 | 51 | 49 | 0.0 | 0.0 | 0.00 | 0.00 | 0.00 | 81 | 1020.4 |
| 20260505091438 | 52 | 49 | 0.0 | 2.0 | 0.00 | 0.00 | 0.00 | 80 | 1020.2 |
| 20260505090939 | 52 | 49 | 0.0 | 2.0 | 0.00 | 0.00 | 0.00 | 80 | 1020.2 |
| 20260505090435 | 52 | 40 | 0.0 | 4.0 | 0.00 | 0.00 | 0.00 | 79 | 1020.2 |
| 20260505085936 | 52 | 16 | 0.0 | 4.0 | 0.00 | 0.00 | 0.00 | 79 | 1020.1 |
| 20260505085434 | 53 | 57 | 0.0 | 4.0 | 0.00 | 0.00 | 0.00 | 78 | 1019.9 |
| 20260505084933 | 53 | 38 | 0.0 | 4.0 | 0.00 | 0.00 | 0.00 | 78 | 1019.9 |
| 20260505084920 | 53 | 17 | 1.0 | 4.0 | 0.00 | 0.00 | 0.00 | 78 | 1019.8 |
| 20260505083932 | 53 | 8 | 1.0 | 4.0 | 0.00 | 0.00 | 0.00 | 77 | 1019.6 |
| 20260505083650 | 53 | 45 | 1.0 | 4.0 | 0.00 | 0.00 | 0.00 | 77 | 1019.6 |
| 20260505083413 | 53 | 4 | 2.0 | 4.0 | 0.00 | 0.00 | 0.00 | 76 | 1019.5 |
| 20260505082435 | 53 | 22 | 1.0 | 4.0 | 0.00 | 0.00 | 0.00 | 76 | 1019.4 |
| 20260505081933 | 54 | 322 | 0.0 | 4.0 | 0.00 | 0.00 | 0.00 | 76 | 1019.3 |
| 20260505081432 | 54 | 348 | 0.0 | 4.0 | 0.00 | 0.00 | 0.00 | 75 | 1019.3 |
| 20260505081154 | 54 | 64 | 1.0 | 4.0 | 0.00 | 0.00 | 0.00 | 75 | 1019.3 |
| 20260505080656 | 54 | 25 | 1.0 | 5.0 | 0.00 | 0.00 | 0.00 | 74 | 1019.2 |
| 20260505080155 | 55 | 32 | 1.0 | 6.0 | 0.00 | 0.00 | 0.00 | 74 | 1019.2 |
| 20260505075433 | 55 | 52 | 0.0 | 6.0 | 0.00 | 0.00 | 0.00 | 73 | 1019.1 |
| 20260505074939 | 55 | 61 | 1.0 | 5.0 | 0.00 | 0.00 | 0.00 | 72 | 1019.1 |
| 20260505074434 | 56 | 334 | 1.0 | 4.0 | 0.00 | 0.00 | 0.00 | 72 | 1019.0 |
| 20260505073933 | 56 | 48 | 1.0 | 4.0 | 0.00 | 0.00 | 0.00 | 72 | 1019.0 |
| 20260505073433 | 56 | 1 | 1.0 | 8.0 | 0.00 | 0.00 | 0.00 | 71 | 1018.9 |
| 20260505073426 | 56 | 36 | 1.0 | 8.0 | 0.00 | 0.00 | 0.00 | 70 | 1018.8 |
| 20260505072433 | 57 | 45 | 1.0 | 5.0 | 0.00 | 0.00 | 0.00 | 69 | 1018.7 |
| 20260505071926 | 57 | 11 | 1.0 | 5.0 | 0.00 | 0.00 | 0.00 | 68 | 1018.6 |
| 20260505071425 | 58 | 18 | 1.0 | 4.0 | 0.00 | 0.00 | 0.00 | 67 | 1018.5 |
| 20260505070910 | 58 | 7 | 1.0 | 6.0 | 0.00 | 0.00 | 0.00 | 67 | 1018.4 |
| 20260505070629 | 58 | 337 | 2.0 | 6.0 | 0.00 | 0.00 | 0.00 | 66 | 1018.2 |
| 20260505065903 | 58 | 20 | 1.0 | 5.0 | 0.00 | 0.00 | 0.00 | 66 | 1018.2 |
| 20260505065403 | 59 | 55 | 2.0 | 7.0 | 0.00 | 0.00 | 0.00 | 66 | 1018.2 |
| 20260505064902 | 59 | 298 | 3.0 | 7.0 | 0.00 | 0.00 | 0.00 | 65 | 1018.1 |
| 20260505064402 | 60 | 44 | 2.0 | 6.0 | 0.00 | 0.00 | 0.00 | 64 | 1018.1 |
| 20260505063901 | 60 | 28 | 1.0 | 6.0 | 0.00 | 0.00 | 0.00 | 64 | 1017.9 |
| 20260505063356 | 60 | 20 | 2.0 | 8.0 | 0.00 | 0.00 | 0.00 | 64 | 1017.9 |
| 20260505062856 | 60 | 71 | 3.0 | 8.0 | 0.00 | 0.00 | 0.00 | 63 | 1017.9 |
| 20260505062400 | 60 | 302 | 2.0 | 8.0 | 0.00 | 0.00 | 0.00 | 63 | 1017.8 |
| 20260505061857 | 61 | 61 | 2.0 | 8.0 | 0.00 | 0.00 | 0.00 | 63 | 1017.8 |
| 20260505061619 | 61 | 287 | 3.0 | 9.0 | 0.00 | 0.00 | 0.00 | 63 | 1017.7 |
| 20260505060854 | 61 | 43 | 4.0 | 9.0 | 0.00 | 0.00 | 0.00 | 62 | 1017.7 |
| 20260505060353 | 61 | 51 | 3.0 | 8.0 | 0.00 | 0.00 | 0.00 | 62 | 1017.6 |
| 20260505055853 | 62 | 42 | 4.0 | 13.0 | 0.00 | 0.00 | 0.00 | 60 | 1017.6 |
| 20260505055618 | 62 | 10 | 4.0 | 13.0 | 0.00 | 0.00 | 0.00 | 60 | 1017.4 |
| 20260505054852 | 62 | 67 | 4.0 | 11.0 | 0.00 | 0.00 | 0.00 | 59 | 1017.4 |
| 20260505054352 | 62 | 59 | 4.0 | 10.0 | 0.00 | 0.00 | 0.00 | 59 | 1017.4 |
| 20260505053847 | 62 | 38 | 4.0 | 10.0 | 0.00 | 0.00 | 0.00 | 58 | 1017.3 |
| 20260505053340 | 62 | 336 | 3.0 | 8.0 | 0.00 | 0.00 | 0.00 | 58 | 1017.3 |
| 20260505053056 | 63 | 67 | 2.0 | 8.0 | 0.00 | 0.00 | 0.00 | 58 | 1017.3 |
| 20260505052329 | 63 | 284 | 2.0 | 6.0 | 0.00 | 0.00 | 0.00 | 57 | 1017.2 |
| 20260505051822 | 63 | 50 | 2.0 | 6.0 | 0.00 | 0.00 | 0.00 | 57 | 1017.2 |
| 20260505051316 | 63 | 9 | 2.0 | 7.0 | 0.00 | 0.00 | 0.00 | 58 | 1017.2 |
| 20260505050809 | 63 | 31 | 3.0 | 8.0 | 0.00 | 0.00 | 0.00 | 57 | 1017.1 |
| 20260505050304 | 63 | 322 | 3.0 | 8.0 | 0.00 | 0.00 | 0.00 | 57 | 1017.1 |